Effective Sunday, March 17, 2024, the National Weather Service National Data Buoy Center will discontinue its Dial-A-Buoy Interactive Voice Response system. For more information, see Service Change Notice 24-06 (PDF).

Station TESL1 - 8764044 - Tesoro Marine Terminal, Berwick, Atchafalaya River, LA Image indicating link to RSS feed of recent meteorological observations for station TESL1


Conditions at TESL1 as of
(10:00 am CST)
1600 GMT on 02/24/2024:
     

Click on the graph icon in the table below to see a time series plot of the last five days of that observation.

5-day plot - Wind Direction Wind Direction (WDIR): NW ( 310 deg true )
5-day plot - Wind Speed Wind Speed (WSPD): 5.1 kts
5-day plot - Wind Gust Wind Gust (GST): 8.9 kts
5-day plot - Atmospheric Pressure Atmospheric Pressure (PRES):30.19 in
5-day plot - Water Temperature Water Temperature (WTMP): 55.0 °F
5-day plot - Wind Speed at 10 Meters Wind Speed at 10 meters (WSPD10M): 5.8 kts
5-day plot - Wind Speed at 20 Meters Wind Speed at 20 meters (WSPD20M): 5.8 kts
5-day plot -  Wind Speed, Wind Gust and Atmospheric Pressure Combined plot of Wind Speed, Gust, and Air Pressure
NOS Water Level Observation Network Water Level
Previous observations
TIME
(CST)
5-day plot - Wind Direction
WDIR
 
5-day plot - Wind Speed
WSPD
kts
5-day plot - Wind Gust
GST
kts
5-day plot - Wave Height
WVHT
ft
5-day plot - Dominant Wave Period
DPD
sec
5-day plot - Average Wave Period
APD
sec
5-day plot - Mean Wave Direction
MWD
 
5-day plot - Atmospheric Pressure
PRES
in
5-day plot - Pressure Tendency
PTDY
in
5-day plot - Air Temperature
ATMP
°F
5-day plot - Water Temperature
WTMP
°F
5-day plot - Dew Point
DEWP
°F
5-day plot - Salinity
SAL
psu
5-day plot - Visibility
VIS
nmi
5-day plot - Tide (above MLLW)
TIDE
ft
2024-02-24 09:54 amWNW 4.1 7.0----30.19-- 55.0----
2024-02-24 09:48 am W 6.0 8.0----30.19-- 55.0----
2024-02-24 09:42 amWNW 4.1 6.0----30.19-- 55.0----
2024-02-24 09:36 am NW 4.1 6.0----30.19-- 55.0----
2024-02-24 09:30 amWNW 2.9 7.0----30.19- 65.5 55.0----
2024-02-24 09:24 am NW 4.1 5.1----30.19- 64.8 55.0----
2024-02-24 09:18 am W 4.1 5.1----30.18- 64.4 55.0----
2024-02-24 09:12 am NW 4.1 5.1----30.18- 63.9 54.9----
2024-02-24 09:06 amWNW 2.9 4.1----30.18- 63.5 54.9----
2024-02-24 09:00 amWNW 2.9 5.1------------
2024-02-24 08:54 am W 4.1 5.1------------
2024-02-24 08:48 am W 2.9 5.1----30.18-- 54.9----
2024-02-24 08:42 amWNW 2.9 6.0----30.17-- 54.9----
2024-02-24 08:36 amWNW 2.9 4.1----30.17-- 54.9----
2024-02-24 08:30 amWNW 1.9 5.1----30.17- 59.5 54.9----
2024-02-24 08:24 am W 2.9 5.1----30.17- 59.0 54.9----
2024-02-24 08:18 am W 2.9 4.1----30.17- 58.3 54.9----
2024-02-24 08:12 amWNW 1.9 4.1----30.17- 58.1 54.9----
2024-02-24 08:06 amWNW 1.0 1.9----30.16- 58.6 54.9----
2024-02-24 08:00 am- 0.0 1.9----30.16+0.06 57.9 54.9----
2024-02-24 07:24 am W 2.9 4.1----30.15-------
2024-02-24 06:12 am- 0.0 1.0----30.12-- 55.0----
2024-02-24 05:00 am-------30.10-- 55.0----
2024-02-24 04:54 am-------30.10-- 55.0----
2024-02-24 04:48 amWNW 2.9 4.1----30.10- 54.0 55.0----
2024-02-24 04:42 amWNW 2.9 4.1----30.10- 53.6 55.0----
2024-02-24 04:36 am NW 1.0 2.9----30.09- 54.3 55.0----
2024-02-24 04:30 amWNW 1.0 2.9----30.09-- 55.2----
2024-02-24 04:24 am NW 1.9 5.1----30.09-- 55.2----
2024-02-24 04:18 am-------30.09- 55.0 55.2----
2024-02-24 04:12 am-------30.09- 55.2 55.2----
2024-02-24 04:06 am-------30.09- 55.0 55.2----
2024-02-24 04:00 am-------30.09+0.00- 55.2----
2024-02-24 03:54 am-------30.09-- 55.2----
2024-02-24 03:48 amNNW 2.9 6.0----30.08-- 55.2----
2024-02-24 03:42 amNNW 1.9 2.9----30.08-- 55.2----
2024-02-24 03:36 amNNW 1.0 1.9----30.08-- 55.2----
2024-02-24 03:30 amNNW 1.9 2.9------------
2024-02-24 03:24 amNNW 1.0 2.9------------
2024-02-24 03:18 am NW 1.9 4.1----30.08- 55.9 55.2----
2024-02-24 03:12 amWNW 1.9 2.9----30.08- 56.1 55.2----
2024-02-24 03:06 am NW 1.9 2.9----30.07- 56.3 55.2----
2024-02-24 03:00 am N 1.0 1.9----30.07+0.01 56.5 55.4----
2024-02-24 02:54 amNNW 1.0 1.9----30.08- 56.8 55.4----
2024-02-24 02:48 am NW 1.9 1.9----30.08- 57.0 55.4----
2024-02-24 02:42 am NW 1.9 2.9----30.08- 57.2 55.4----
2024-02-24 02:36 am NW 1.9 2.9----30.08- 57.4 55.4----
2024-02-24 02:30 am NW 1.9 2.9----30.08-- 55.4----
2024-02-24 02:24 amNNW 1.9 4.1----30.07-- 55.4----
2024-02-24 02:18 am NW 4.1 5.1----30.08-- 55.4----
2024-02-24 02:12 amNNW 2.9 4.1----30.08-- 55.4----
2024-02-24 02:06 am NW 1.9 4.1----30.08-- 55.4----
2024-02-24 02:00 am NW 2.9 4.1------- 55.4----
2024-02-24 01:54 amWNW 1.9 2.9------- 55.4----
2024-02-24 01:48 am NW 1.9 2.9----30.07-- 55.4----
2024-02-24 01:42 am NW 1.9 4.1----30.07-- 55.4----
2024-02-24 01:36 amNNW 2.9 5.1----30.07-- 55.4----
2024-02-24 01:30 amNNW 2.9 4.1----30.07-------
2024-02-24 01:24 amNNW 1.9 4.1----30.07-------
2024-02-24 01:18 amNNW 1.9 4.1----30.07- 59.0 55.4----
2024-02-24 01:12 am NW 1.9 4.1----30.07- 59.0 55.4----
2024-02-24 01:06 am NW 2.9 5.1----30.08- 58.8 55.4----
2024-02-24 01:00 am-------30.08+0.05 58.8 55.4----
2024-02-24 12:54 am-------30.08- 59.0 55.4----
2024-02-24 12:48 am NW 2.9 5.1----30.08-- 55.4----
2024-02-24 12:42 amWNW 2.9 4.1----30.07-- 55.4----
2024-02-24 12:36 am NW 2.9 4.1----30.07-- 55.6----
2024-02-24 12:30 am-------30.07- 58.8 55.6----
2024-02-24 12:24 am-------30.07- 58.8 55.6----
2024-02-24 12:18 amWNW 2.9 5.1----30.07-- 55.6----
2024-02-24 12:12 am W 2.9 4.1----30.07-- 55.6----
2024-02-24 12:06 amWNW 2.9 4.1----30.07-- 55.6----
2024-02-24 12:00 amWNW 1.9 4.1----30.06+0.04 59.4 55.6----
2024-02-23 11:54 pm NW 1.9 4.1----30.06- 59.5 55.6----
2024-02-23 11:48 pmWNW 1.9 2.9----30.06-- 55.6----
2024-02-23 11:42 pm NW 1.9 4.1----30.06-- 55.6----
2024-02-23 11:36 pmWNW 2.9 5.1----30.06-- 55.6----
2024-02-23 11:30 pm NW 4.1 5.1----30.06- 60.1 55.6----
2024-02-23 11:24 pmWNW 1.9 4.1----30.05- 60.1 55.6----
2024-02-23 11:18 pm NW 2.9 5.1----30.05- 60.3 55.6----
2024-02-23 11:12 pm W 1.9 2.9----30.05- 59.9 55.6----
2024-02-23 11:06 pm W 2.9 5.1----30.05- 60.1 55.6----
2024-02-23 11:00 pm W 1.9 2.9----30.05+0.06- 55.6----
2024-02-23 10:54 pmWNW 1.9 2.9----30.05-- 55.6----
2024-02-23 10:48 pm NW 1.9 4.1----30.05- 60.6 55.6----
2024-02-23 10:42 pm W 4.1 6.0----30.05- 60.8 55.6----
2024-02-23 10:36 pmWNW 2.9 5.1----30.04- 61.5 55.6----
2024-02-23 10:30 pmWNW 2.9 5.1----30.04- 61.5 55.6----
2024-02-23 10:24 pmWNW 1.0 1.9----30.03- 61.0 55.6----
2024-02-23 10:18 pm W 1.9 4.1----30.03- 61.2 55.6----
2024-02-23 10:12 pm W 2.9 5.1----30.03- 61.7 55.6----
2024-02-23 10:06 pmWNW 1.0 1.0----30.03- 60.4 55.6----
2024-02-23 10:00 pm- 0.0 1.0----30.03+0.07 60.8-----
2024-02-23 09:54 pm W 1.0 2.9----30.03- 61.3-----
2024-02-23 09:48 pmWSW 1.9 2.9----30.04-- 55.8----
2024-02-23 09:42 pm W 1.9 4.1----30.04-- 55.8----
2024-02-23 09:36 pm W 1.9 2.9----30.03-- 55.8----
2024-02-23 09:30 pmWSW 1.9 1.9----30.03- 61.9 55.8----
2024-02-23 09:24 pm W 1.0 1.9----30.03- 62.6 55.8----
2024-02-23 09:18 pm W 1.9 2.9----30.03- 63.0 55.8----
2024-02-23 09:12 pm W 1.9 2.9----30.03- 63.5 55.8----
2024-02-23 09:06 pm W 1.9 4.1----30.02- 63.7 55.8----
2024-02-23 09:00 pm W 2.9 4.1----30.02+0.08 63.9 55.8----
2024-02-23 08:54 pm W 1.9 1.9----30.02- 63.7 55.8----
2024-02-23 08:48 pm W 1.0 2.9----30.01- 64.0 55.8----
2024-02-23 08:42 pm W 1.9 1.9----30.01- 64.2 55.8----
2024-02-23 08:36 pm W 1.9 2.9----30.01- 64.2 55.8----
2024-02-23 08:30 pm W 1.9 2.9----30.01- 64.6 55.8----
2024-02-23 08:24 pm W 1.9 2.9----30.01- 64.8 55.8----
2024-02-23 08:18 pm W 2.9 4.1----30.01- 65.3 55.8----
2024-02-23 08:12 pmWNW 1.9 2.9----30.00- 65.5 55.8----
2024-02-23 08:06 pm W 1.9 4.1----30.00- 65.7 55.8----
2024-02-23 08:00 pm W 1.9 2.9----29.99+0.08 66.2 55.8----
2024-02-23 07:54 pm W 1.9 4.1----29.99- 66.4 55.8----
2024-02-23 07:48 pmWNW 1.9 5.1----29.99- 66.4 55.8----
2024-02-23 07:42 pm W 2.9 4.1----29.99- 66.4 55.8----
2024-02-23 07:36 pm W 2.9 4.1----29.99- 66.4 55.8----
2024-02-23 07:30 pm W 2.9 4.1----29.98-------
2024-02-23 07:24 pmWNW 1.9 2.9----29.98-------
2024-02-23 07:18 pmWNW 1.9 4.1----29.97-- 55.8----
2024-02-23 07:12 pm NW 2.9 4.1----29.97-- 55.8----
2024-02-23 07:06 pmNNW 2.9 5.1----29.97-- 55.8----
2024-02-23 07:00 pmNNW 2.9 5.1----29.96+0.06- 55.8----
2024-02-23 06:54 pmNNW 4.1 5.1----29.96-- 55.6----
2024-02-23 06:48 pm NW 4.1 6.0----29.96-- 55.8----
2024-02-23 06:42 pmNNW 4.1 5.1----29.95-- 55.8----
2024-02-23 06:36 pmNNW 2.9 5.1----29.95-- 55.6----
2024-02-23 06:30 pmNNW 5.1 7.0----29.95-- 55.6----
2024-02-23 06:24 pmNNW 5.1 7.0----29.95-- 55.6----
2024-02-23 06:18 pmNNW 4.1 6.0----29.94-- 55.6----
2024-02-23 06:12 pmNNW 5.1 8.0----29.94-- 55.8----
2024-02-23 06:06 pmNNW 5.1 7.0----29.94-- 55.8----
2024-02-23 06:00 pm N 5.1 8.0----29.94+0.05------
2024-02-23 05:54 pmNNW 6.0 8.9----29.94-------
2024-02-23 05:48 pmNNW 5.1 8.9----29.93- 71.4 55.6----
2024-02-23 05:42 pm N 7.0 11.1----29.93- 71.8 55.6----
2024-02-23 05:36 pmNNW 6.0 9.9----29.93- 72.0 55.6----
2024-02-23 05:30 pmNNW 7.0 13.0----29.93- 72.1 55.6----
2024-02-23 05:24 pm NW 8.0 14.0----29.92- 72.3 55.6----
2024-02-23 05:18 pmNNW 8.0 14.0----29.92-- 55.6----
2024-02-23 05:12 pmNNW 8.9 12.0----29.92-- 55.4----
2024-02-23 05:06 pm N 8.9 13.0----29.91-- 55.4----
2024-02-23 05:00 pm N 6.0 14.0----29.91+0.02 72.7 55.4----
2024-02-23 04:54 pmNNW 9.9 13.0----29.91- 72.9 55.6----
2024-02-23 04:48 pmNNW 7.0 13.0----29.91- 73.0 55.4----
2024-02-23 04:42 pmNNW 6.0 13.0----29.91- 73.2 55.4----
2024-02-23 04:36 pmNNW 9.9 14.0----29.91- 73.0 55.4----
2024-02-23 04:30 pm N 11.1 15.0----29.91- 73.0 55.4----
2024-02-23 04:24 pmNNW 11.1 15.9----29.91- 73.0 55.4----
2024-02-23 04:18 pmNNW 8.9 15.0----29.90- 73.2 55.4----
2024-02-23 04:12 pmNNW 8.9 19.0----29.90- 73.2 55.4----
2024-02-23 04:06 pmNNW 7.0 15.9----29.90- 73.6 55.2----
2024-02-23 04:00 pm N 7.0 14.0----29.90+0.00 73.4 55.4----
2024-02-23 03:54 pm NW 9.9 15.9----29.90- 73.0 55.2----
2024-02-23 03:48 pm NW 11.1 17.1----29.90- 73.2 55.4----
2024-02-23 03:42 pm NW 14.0 18.1----29.90- 73.4 55.2----
2024-02-23 03:36 pm NW 8.9 17.1----29.90- 73.4 55.2----
2024-02-23 03:30 pm NW 8.9 14.0----29.90- 73.2 55.2----
2024-02-23 03:24 pm NW 12.0 17.1----29.90- 73.2 55.2----
2024-02-23 03:18 pmNNW 9.9 18.1----29.89- 73.2 55.2----
2024-02-23 03:12 pmNNW 8.0 15.0----29.89- 73.8 55.2----
2024-02-23 03:06 pm NW 11.1 20.0----29.89- 73.4 55.0----
2024-02-23 03:00 pmNNW 12.0 17.1----29.89-0.02 73.6 55.2----
2024-02-23 02:54 pm N 8.9 18.1----29.89- 73.2 55.0----
2024-02-23 02:48 pmNNW 14.0 19.0----29.89- 73.2 55.0----
2024-02-23 02:42 pm N 9.9 17.1----29.89- 73.2 55.0----
2024-02-23 02:12 pmNNW 14.0 20.0----29.89- 73.2 55.0----
2024-02-23 02:06 pm NW 8.9 15.0----29.89- 73.4 55.0----
2024-02-23 02:00 pm NW 13.0 18.1----29.89-0.03 72.9 55.0----
2024-02-23 01:54 pmNNW 13.0 25.1----29.89- 72.7 54.9----
2024-02-23 01:48 pm NW 14.0 19.0----29.90- 72.7 54.9----
2024-02-23 01:42 pmNNW 11.1 20.0----29.90- 72.9 54.9----
2024-02-23 01:36 pm NW 12.0 20.0----29.90- 72.7 54.9----
2024-02-23 01:30 pm NW 11.1 18.1----29.90- 72.9 54.9----
2024-02-23 01:24 pm N 12.0 21.0----29.90- 72.5 54.7----
2024-02-23 01:18 pm NW 14.0 20.0----29.90- 72.3 54.7----
2024-02-23 01:12 pmNNW 12.0 18.1----29.90- 72.3 54.7----
2024-02-23 01:06 pm NW 11.1 21.0----29.90- 72.3 54.7----
2024-02-23 01:00 pmNNW 8.0 18.1----29.90-0.01 72.5 54.7----
2024-02-23 12:54 pmNNW 14.0 20.0----29.90- 72.0 54.7----
2024-02-23 12:48 pmNNW 9.9 15.9----29.90- 72.5 54.7----
2024-02-23 12:42 pmNNW 13.0 19.0----29.91- 71.6 54.9----
2024-02-23 12:36 pm NW 12.0 22.0----29.91- 71.8 54.9----
2024-02-23 12:30 pmNNW 13.0 22.0----29.91- 71.6 54.9----
2024-02-23 12:24 pmNNW 11.1 19.0----29.91- 71.6 54.7----
2024-02-23 12:18 pm NW 13.0 19.0----29.91- 71.6 54.7----
2024-02-23 12:12 pm NW 12.0 19.0----29.91- 71.6 54.5----
2024-02-23 12:06 pmNNW 9.9 14.0----29.91- 71.1 54.5----
2024-02-23 12:00 pmNNW 11.1 17.1----29.92+0.02 70.9 54.5----
2024-02-23 11:54 am N 9.9 17.1----29.92- 71.6 54.3----
2024-02-23 11:48 am N 9.9 15.9----29.92- 71.1 54.5----
2024-02-23 11:42 amNNW 8.0 17.1----29.92- 71.6 54.5----
2024-02-23 11:36 am NW 8.9 13.0----29.92- 71.2 54.3----
2024-02-23 11:30 am NW 8.0 14.0----29.92- 71.1 54.3----
2024-02-23 11:24 amNNW 8.9 15.0----29.92- 70.9 54.3----
2024-02-23 11:18 amNNW 9.9 15.0----29.92- 70.7 54.5----
2024-02-23 11:12 amNNW 11.1 15.9----29.92- 70.5 54.5----
2024-02-23 11:06 amNNW 7.0 13.0----29.92- 70.5 54.5----
2024-02-23 11:00 amNNW 9.9 14.0----29.92+0.04 70.2 54.5----
2024-02-23 10:54 am NW 8.0 12.0----29.92- 71.1 54.5----
2024-02-23 10:48 am NW 7.0 13.0----29.92- 70.3 54.3----
2024-02-23 10:42 am NW 7.0 12.0----29.92- 70.3 54.3----
2024-02-23 10:36 am NW 6.0 9.9----29.92- 70.0 54.3----
2024-02-23 10:30 amWNW 7.0 14.0----29.92- 69.4 54.3----
2024-02-23 10:24 am NW 8.0 13.0----29.91- 69.1 54.3----
2024-02-23 10:18 am NW 6.0 12.0----29.91- 69.4 54.3----
2024-02-23 10:12 am NW 8.9 13.0----29.91- 68.4 54.3----
2024-02-23 10:06 amNNW 11.1 15.0----29.91- 68.2 54.1----
2024-02-23 10:00 am NW 6.0 11.1----29.91+0.04 68.5 54.1----
2024-02-23 09:54 am NW 8.9 13.0----29.91- 67.8 54.1----